EW9362 Weather Reports


Display with metric or nautical units.
time (UTC)temp
F
wind
direction
speed
MPH
gust
MPH
rain 1hr
in
rain 24hr
in
rain mn
in
humidity
%
barometer
mb
20260508231544 71 183 2.0 11.0 0.00 0.00 0.00 40 1010.1
20260508231028 72 184 3.0 12.0 0.00 0.00 0.00 39 1010.2
20260508230527 72 135 2.0 12.0 0.00 0.00 0.00 40 1010.0
20260508230045 72 278 3.0 10.0 0.00 0.00 0.00 39 1010.1
20260508225527 72 130 1.0 10.0 0.00 0.00 0.00 41 1010.2
20260508225028 72 0 1.0 9.0 0.00 0.00 0.00 40 1010.3
20260508224549 72 0 1.0 8.0 0.00 0.00 0.00 41 1010.5
20260508224031 72 258 2.0 8.0 0.00 0.00 0.00 40 1010.4
20260508223529 72 169 2.0 14.0 0.00 0.00 0.00 39 1010.5
20260508223050 72 0 1.0 14.0 0.00 0.00 0.00 39 1010.4
20260508222527 72 220 4.0 14.0 0.00 0.00 0.00 38 1010.3
20260508222029 72 234 3.0 11.0 0.00 0.00 0.00 39 1010.3
20260508221547 72 274 1.0 11.0 0.00 0.00 0.00 38 1010.3
20260508221027 73 259 2.0 6.0 0.00 0.00 0.00 37 1010.3
20260508220529 73 224 1.0 11.0 0.00 0.00 0.00 37 1010.2
20260508220046 73 228 2.0 12.0 0.00 0.00 0.00 38 1010.1
20260508215529 72 168 4.0 13.0 0.00 0.00 0.00 37 1010.1
20260508215031 73 131 4.0 13.0 0.00 0.00 0.00 38 1010.1
20260508214558 73 0 3.0 11.0 0.00 0.00 0.00 38 1010.0
20260508214030 73 179 1.0 8.0 0.00 0.00 0.00 36 1010.1
20260508213529 73 261 1.0 8.0 0.00 0.00 0.00 37 1010.1
20260508213039 73 128 0.0 9.0 0.00 0.00 0.00 36 1010.3
20260508212528 73 138 1.0 15.0 0.00 0.00 0.00 36 1010.2
20260508212031 73 162 2.0 15.0 0.00 0.00 0.00 37 1010.2
20260508211546 74 218 1.0 7.0 0.00 0.00 0.00 36 1010.4
20260508211034 74 221 1.0 10.0 0.00 0.00 0.00 37 1010.5
20260508210529 73 131 2.0 10.0 0.00 0.00 0.00 37 1010.4
20260508210047 73 266 2.0 10.0 0.00 0.00 0.00 36 1010.5
20260508205529 73 176 2.0 10.0 0.00 0.00 0.00 36 1010.5
20260508205029 73 128 0.0 8.0 0.00 0.00 0.00 37 1010.6
20260508204545 73 55 1.0 7.0 0.00 0.00 0.00 38 1010.8
20260508204026 73 179 1.0 7.0 0.00 0.00 0.00 38 1011.0
20260508203527 73 141 2.0 7.0 0.00 0.00 0.00 36 1011.0
20260508203043 73 0 2.0 13.0 0.00 0.00 0.00 37 1010.8
20260508202528 73 22 1.0 13.0 0.00 0.00 0.00 38 1010.8
20260508202029 72 219 6.0 14.0 0.00 0.00 0.00 37 1011.0
20260508201539 73 184 5.0 14.0 0.00 0.00 0.00 38 1011.2
20260508201029 73 210 3.0 10.0 0.00 0.00 0.00 36 1011.4
20260508200529 73 136 2.0 11.0 0.00 0.00 0.00 37 1011.5
20260508200046 73 86 1.0 11.0 0.00 0.00 0.00 38 1011.4
20260508195528 73 165 1.0 10.0 0.00 0.00 0.00 37 1011.5
20260508195031 73 8 1.0 10.0 0.00 0.00 0.00 37 1011.6
20260508194544 73 0 1.0 10.0 0.00 0.00 0.00 36 1011.6
20260508194030 72 259 4.0 14.0 0.00 0.00 0.00 36 1011.7
20260508193529 72 206 5.0 14.0 0.00 0.00 0.00 37 1011.6
20260508193057 73 199 2.0 7.0 0.00 0.00 0.00 36 1011.8
20260508192526 73 162 2.0 9.0 0.00 0.00 0.00 39 1011.9
20260508192029 73 262 1.0 9.0 0.00 0.00 0.00 38 1012.1
20260508191551 74 105 2.0 8.0 0.00 0.00 0.00 37 1012.1
20260508191030 73 87 1.0 11.0 0.00 0.00 0.00 36 1012.1
20260508190532 73 217 3.0 11.0 0.00 0.00 0.00 38 1012.2
20260508190052 73 0 1.0 14.0 0.00 0.00 0.00 37 1012.3
20260508185532 72 203 1.0 14.0 0.00 0.00 0.00 37 1012.3
20260508185030 72 227 4.0 14.0 0.00 0.00 0.00 37 1012.3
20260508184545 71 222 6.0 14.0 0.00 0.00 0.00 37 1012.3
20260508184033 72 259 3.0 14.0 0.00 0.00 0.00 36 1012.1
20260508183526 72 54 2.0 10.0 0.00 0.00 0.00 37 1012.2
20260508183056 72 50 1.0 17.0 0.00 0.00 0.00 38 1012.0
20260508182528 72 251 2.0 17.0 0.00 0.00 0.00 38 1012.1
20260508182026 72 245 4.0 17.0 0.00 0.00 0.00 37 1012.2
20260508181543 72 129 2.0 12.0 0.00 0.00 0.00 37 1012.3
20260508181026 72 141 3.0 14.0 0.00 0.00 0.00 39 1012.5
20260508180527 71 230 4.0 14.0 0.00 0.00 0.00 37 1012.5
20260508180056 71 228 7.0 14.0 0.00 0.00 0.00 37 1012.5
20260508175529 72 143 0.0 13.0 0.00 0.00 0.00 37 1012.8
20260508175029 71 264 6.0 12.0 0.00 0.00 0.00 37 1013.1
20260508174601 72 178 1.0 9.0 0.00 0.00 0.00 39 1013.2
20260508174030 71 290 3.0 12.0 0.00 0.00 0.00 38 1013.4
20260508173530 72 273 2.0 12.0 0.00 0.00 0.00 37 1013.4
20260508173045 71 144 4.0 12.0 0.00 0.00 0.00 38 1013.4
20260508172530 70 205 4.0 12.0 0.00 0.00 0.00 38 1013.5
20260508172030 71 181 1.0 11.0 0.00 0.00 0.00 41 1013.8
20260508171546 72 247 2.0 11.0 0.00 0.00 0.00 39 1013.9
20260508171031 71 339 1.0 9.0 0.00 0.00 0.00 41 1013.8
20260508170529 71 210 1.0 11.0 0.00 0.00 0.00 39 1013.9
20260508170046 70 205 3.0 13.0 0.00 0.00 0.00 38 1013.9
20260508165529 70 215 5.0 13.0 0.00 0.00 0.00 38 1014.1
20260508165031 71 98 2.0 10.0 0.00 0.00 0.00 41 1014.4
20260508164549 70 58 1.0 10.0 0.00 0.00 0.00 39 1014.4
20260508164030 70 199 2.0 11.0 0.00 0.00 0.00 41 1014.5
20260508163529 69 309 5.0 11.0 0.00 0.00 0.00 42 1014.5
20260508163047 69 273 2.0 14.0 0.00 0.00 0.00 42 1014.6
20260508162530 69 193 4.0 14.0 0.00 0.00 0.00 42 1014.7
20260508162033 69 187 3.0 7.0 0.00 0.00 0.00 44 1014.6
20260508161545 69 0 1.0 9.0 0.00 0.00 0.00 43 1014.8
20260508161029 69 39 2.0 9.0 0.00 0.00 0.00 44 1014.8
20260508160528 69 196 3.0 9.0 0.00 0.00 0.00 42 1014.9
20260508160046 69 0 0.0 9.0 0.00 0.00 0.00 44 1014.9
20260508155531 69 238 1.0 6.0 0.00 0.00 0.00 44 1015.0
20260508155032 68 0 2.0 9.0 0.00 0.00 0.00 45 1015.1
20260508154544 68 175 2.0 9.0 0.00 0.00 0.00 48 1015.2
20260508154031 68 174 1.0 6.0 0.00 0.00 0.00 44 1015.3
20260508153532 68 87 1.0 7.0 0.00 0.00 0.00 43 1015.3
20260508153049 68 174 1.0 7.0 0.00 0.00 0.00 45 1015.5
20260508152532 67 178 1.0 7.0 0.00 0.00 0.00 44 1015.5
20260508152029 67 0 1.0 7.0 0.00 0.00 0.00 44 1015.7
20260508151547 67 193 0.0 7.0 0.00 0.00 0.00 45 1015.6
20260508151032 66 75 0.0 6.0 0.00 0.00 0.00 46 1015.8
20260508150531 65 205 1.0 5.0 0.00 0.00 0.00 47 1015.9
20260508150046 66 59 0.0 4.0 0.00 0.00 0.00 45 1016.1
20260508145530 65 333 0.0 4.0 0.00 0.00 0.00 50 1016.0
20260508145028 64 60 0.0 6.0 0.00 0.00 0.00 49 1016.1
20260508144550 64 328 0.0 6.0 0.00 0.00 0.00 51 1016.0
20260508144031 64 28 0.0 6.0 0.00 0.00 0.00 49 1015.9
20260508143529 64 153 0.0 6.0 0.00 0.00 0.00 51 1016.1
20260508143049 63 174 1.0 6.0 0.00 0.00 0.00 49 1016.1
20260508142528 63 179 0.0 5.0 0.00 0.00 0.00 50 1016.1
20260508142029 63 0 0.0 5.0 0.00 0.00 0.00 50 1016.2
20260508141550 62 152 0.0 4.0 0.00 0.00 0.00 52 1016.1
20260508141028 61 0 0.0 7.0 0.00 0.00 0.00 53 1016.0
20260508140528 61 118 0.0 7.0 0.00 0.00 0.00 51 1016.1
20260508140046 61 0 3.0 7.0 0.00 0.00 0.00 51 1016.1
20260508135528 61 250 0.0 6.0 0.00 0.00 0.00 53 1016.2
20260508135029 60 0 1.0 7.0 0.00 0.00 0.00 52 1016.2
20260508134550 59 240 2.0 7.0 0.00 0.00 0.00 52 1016.2
20260508134028 59 208 1.0 6.0 0.00 0.00 0.00 52 1016.1
20260508133528 59 189 0.0 6.0 0.00 0.00 0.00 52 1016.1
20260508133045 59 0 0.0 10.0 0.00 0.00 0.00 54 1016.1
20260508132530 58 0 2.0 10.0 0.00 0.00 0.00 54 1016.0
20260508132027 57 196 2.0 10.0 0.00 0.00 0.00 53 1015.9
20260508131552 57 203 2.0 6.0 0.00 0.00 0.00 53 1016.0
20260508131029 57 215 2.0 7.0 0.00 0.00 0.00 54 1015.9
20260508130527 56 0 3.0 11.0 0.00 0.00 0.00 54 1015.9
20260508130042 56 236 3.0 11.0 0.00 0.00 0.00 54 1015.9
20260508125527 56 231 1.0 6.0 0.00 0.00 0.00 54 1015.9
20260508125028 56 218 1.0 9.0 0.00 0.00 0.00 54 1015.9
20260508124544 55 0 3.0 9.0 0.00 0.00 0.00 54 1015.8
20260508124029 55 190 3.0 7.0 0.00 0.00 0.00 55 1016.0
20260508123529 55 160 1.0 6.0 0.00 0.00 0.00 55 1016.0
20260508123047 54 253 1.0 8.0 0.00 0.00 0.00 57 1015.9
20260508122527 54 191 1.0 8.0 0.00 0.00 0.00 58 1015.9
20260508122027 53 228 2.0 8.0 0.00 0.00 0.00 59 1015.9
20260508121544 53 192 2.0 7.0 0.00 0.00 0.00 58 1015.9
20260508121028 52 189 2.0 8.0 0.00 0.00 0.00 60 1015.9
20260508120527 52 0 2.0 8.0 0.00 0.00 0.00 61 1016.0
20260508115528 50 205 1.0 7.0 0.00 0.00 0.00 64 1015.9
20260508115026 50 219 2.0 7.0 0.00 0.00 0.00 65 1015.8
20260508114556 49 210 1.0 5.0 0.00 0.00 0.00 66 1015.8
20260508114028 49 0 0.0 7.0 0.00 0.00 0.00 67 1015.8
20260508113531 47 160 2.0 7.0 0.00 0.00 0.00 69 1015.7
20260508113053 47 206 1.0 5.0 0.00 0.00 0.00 69 1015.7
20260508112529 47 160 2.0 5.0 0.00 0.00 0.00 70 1015.6
20260508112031 47 178 2.0 6.0 0.00 0.00 0.00 70 1015.5
20260508111546 46 169 1.0 6.0 0.00 0.00 0.00 70 1015.4
20260508111033 46 198 1.0 4.0 0.00 0.00 0.00 70 1015.3
20260508110531 46 211 0.0 4.0 0.00 0.00 0.00 71 1015.2
20260508110044 46 212 2.0 5.0 0.00 0.00 0.00 71 1015.2
20260508105534 46 200 1.0 5.0 0.00 0.00 0.00 71 1015.2
20260508105028 46 185 1.0 5.0 0.00 0.00 0.00 71 1015.2
20260508104547 45 213 2.0 6.0 0.00 0.00 0.00 71 1015.1
20260508104031 45 226 1.0 6.0 0.00 0.00 0.00 72 1015.2
20260508103531 45 200 2.0 6.0 0.00 0.00 0.00 71 1015.0
20260508103058 45 177 2.0 5.0 0.00 0.00 0.00 72 1015.1
20260508102533 45 185 2.0 5.0 0.00 0.00 0.00 72 1015.1
20260508102031 45 150 1.0 5.0 0.00 0.00 0.00 73 1015.1
20260508101550 45 176 1.0 5.0 0.00 0.00 0.00 72 1015.1
20260508101034 45 251 1.0 5.0 0.00 0.00 0.00 73 1015.1
20260508100531 45 167 0.0 5.0 0.00 0.00 0.00 74 1015.1
20260508100040 45 171 1.0 7.0 0.00 0.00 0.00 74 1015.1
20260508095531 45 165 2.0 7.0 0.00 0.00 0.00 73 1015.2
20260508095030 45 179 2.0 5.0 0.00 0.00 0.00 74 1015.2
20260508094546 45 168 1.0 4.0 0.00 0.00 0.00 74 1015.3
20260508094030 45 180 1.0 5.0 0.00 0.00 0.00 74 1015.3
20260508093528 45 200 1.0 5.0 0.00 0.00 0.00 73 1015.3
20260508093046 45 160 1.0 5.0 0.00 0.00 0.00 73 1015.3
20260508092531 45 228 2.0 5.0 0.00 0.00 0.00 73 1015.3
20260508092031 45 185 1.0 6.0 0.00 0.00 0.00 72 1015.3
20260508091542 46 214 2.0 6.0 0.00 0.00 0.00 72 1015.3
20260508091032 46 178 2.0 6.0 0.00 0.00 0.00 72 1015.3
20260508090533 46 195 1.0 5.0 0.00 0.00 0.00 72 1015.3
20260508090040 46 181 2.0 5.0 0.00 0.00 0.00 72 1015.3
20260508085532 46 0 1.0 5.0 0.00 0.00 0.00 72 1015.3
20260508085031 46 191 2.0 5.0 0.00 0.00 0.00 72 1015.2
20260508084543 45 195 1.0 4.0 0.00 0.00 0.00 73 1015.2
20260508084031 45 0 1.0 5.0 0.00 0.00 0.00 74 1015.2
20260508083531 46 195 1.0 5.0 0.00 0.00 0.00 72 1015.1
20260508083048 45 221 1.0 4.0 0.00 0.00 0.00 73 1015.3
20260508082531 45 182 1.0 4.0 0.00 0.00 0.00 74 1015.2
20260508082033 45 183 0.0 3.0 0.00 0.00 0.00 74 1015.2
20260508081542 45 179 1.0 3.0 0.00 0.00 0.00 74 1015.2
20260508081031 45 203 1.0 3.0 0.00 0.00 0.00 74 1015.3
20260508080528 45 207 1.0 3.0 0.00 0.00 0.00 74 1015.3
20260508080040 45 222 0.0 3.0 0.00 0.00 0.00 75 1015.3
20260508075531 45 164 0.0 3.0 0.00 0.00 0.00 74 1015.3
20260508075033 45 207 0.0 2.0 0.00 0.00 0.00 76 1015.2
20260508074547 46 196 0.0 2.0 0.00 0.00 0.00 74 1015.2
20260508074031 45 0 0.0 2.0 0.00 0.00 0.00 77 1015.4
20260508073528 45 0 0.0 2.0 0.00 0.00 0.00 77 1015.2
20260508073044 45 189 0.0 2.0 0.00 0.00 0.00 79 1015.3
20260508072529 45 0 0.0 2.0 0.00 0.00 0.00 78 1015.2
20260508072030 45 0 0.0 2.0 0.00 0.00 0.00 80 1015.2
20260508071545 45 173 0.0 0.0 0.00 0.00 0.00 81 1015.3
20260508071031 45 172 0.0 0.0 0.00 0.00 0.00 80 1015.4
20260508070531 45 168 0.0 0.0 0.00 0.00 0.00 79 1015.4
20260508070043 45 0 0.0 1.0 0.00 0.00 0.00 77 1015.4
20260508065532 45 0 0.0 1.0 0.00 0.00 0.00 79 1015.4
20260508065033 45 0 0.0 2.0 0.00 0.00 0.00 80 1015.5
20260508064545 45 0 0.0 2.0 0.00 0.00 0.00 78 1015.7
20260508064031 44 175 0.0 0.0 0.00 0.00 0.00 81 1015.6
20260508063531 44 0 0.0 0.0 0.00 0.00 0.00 82 1015.7
20260508063058 44 0 0.0 0.0 0.00 0.00 0.00 82 1015.7
20260508062533 45 0 0.0 0.0 0.00 0.00 0.00 81 1015.7
20260508062030 45 0 0.0 0.0 0.00 0.00 0.00 80 1015.7
20260508061547 45 0 0.0 1.0 0.00 0.00 0.00 79 1015.8
20260508061030 46 0 0.0 1.0 0.00 0.00 0.00 79 1015.7
20260508060532 45 0 0.0 1.0 0.00 0.00 0.00 77 1015.7
20260508060042 45 0 0.0 0.0 0.00 0.00 0.00 77 1015.8
20260508055528 45 0 0.0 0.0 0.00 0.00 0.00 78 1015.8
20260508055031 45 0 0.0 0.0 0.00 0.00 0.00 79 1015.9
20260508054547 46 0 0.0 1.0 0.00 0.00 0.00 78 1015.9
20260508054031 46 0 0.0 1.0 0.00 0.00 0.00 76 1015.9
20260508053531 46 0 0.0 0.0 0.00 0.00 0.00 77 1015.9
20260508053039 46 0 0.0 0.0 0.00 0.00 0.00 77 1016.0
20260508052528 46 0 0.0 0.0 0.00 0.00 0.00 75 1016.0
20260508052030 47 0 0.0 0.0 0.00 0.00 0.00 74 1016.1
20260508051544 47 0 0.0 0.0 0.00 0.00 0.00 74 1016.1
20260508051030 46 0 0.0 0.0 0.00 0.00 0.00 76 1016.1
20260508050532 47 0 0.0 0.0 0.00 0.00 0.00 76 1016.1
20260508050044 47 0 0.0 0.0 0.00 0.00 0.00 75 1016.1
20260508045530 47 0 0.0 0.0 0.00 0.00 0.00 74 1016.1
20260508045031 47 0 0.0 0.0 0.00 0.00 0.00 73 1016.0
20260508044541 47 0 0.0 0.0 0.00 0.00 0.00 72 1015.9
20260508044027 47 0 0.0 0.0 0.00 0.00 0.00 73 1016.0
20260508043529 47 0 0.0 0.0 0.00 0.00 0.00 72 1015.9
20260508043056 47 0 0.0 0.0 0.00 0.00 0.00 73 1016.0
20260508042528 47 0 0.0 0.0 0.00 0.00 0.00 75 1015.9
20260508042031 48 0 0.0 0.0 0.00 0.00 0.00 75 1016.0
20260508041550 48 0 0.0 0.0 0.00 0.00 0.00 72 1015.9
20260508041031 48 0 0.0 0.0 0.00 0.00 0.00 72 1016.0
20260508040531 48 0 0.0 0.0 0.00 0.00 0.00 74 1016.0
20260508040049 47 0 0.0 0.0 0.00 0.00 0.00 75 1015.9
20260508035530 47 0 0.0 0.0 0.00 0.00 0.00 73 1015.9
20260508035033 48 0 0.0 0.0 0.00 0.00 0.00 72 1016.0
20260508034547 48 0 0.0 0.0 0.00 0.00 0.00 72 1016.1
20260508034030 48 0 0.0 0.0 0.00 0.00 0.00 70 1015.9
20260508033531 48 0 0.0 0.0 0.00 0.00 0.00 74 1015.9
20260508033041 49 0 0.0 0.0 0.00 0.00 0.00 73 1016.0
20260508032531 49 0 0.0 0.0 0.00 0.00 0.00 72 1016.1
20260508032030 49 0 0.0 0.0 0.00 0.00 0.00 70 1016.1
20260508031544 48 0 0.0 0.0 0.00 0.00 0.00 72 1016.1
20260508031028 48 0 0.0 0.0 0.00 0.00 0.00 71 1016.2
20260508030531 49 0 0.0 0.0 0.00 0.00 0.00 70 1016.2
20260508030045 49 0 0.0 0.0 0.00 0.00 0.00 69 1016.1
20260508025530 49 0 0.0 0.0 0.00 0.00 0.00 68 1016.0
20260508025034 49 0 0.0 0.0 0.00 0.00 0.00 68 1016.1
20260508024544 49 0 0.0 0.0 0.00 0.00 0.00 67 1016.0
20260508024031 49 0 0.0 0.0 0.00 0.00 0.00 67 1016.0
20260508023529 50 0 0.0 0.0 0.00 0.00 0.00 67 1015.9
20260508023039 50 0 0.0 0.0 0.00 0.00 0.00 66 1016.0
20260508022527 50 0 0.0 0.0 0.00 0.00 0.00 67 1015.9
20260508022030 50 0 0.0 0.0 0.00 0.00 0.00 66 1015.7
20260508021554 50 0 0.0 0.0 0.00 0.00 0.00 65 1015.7
20260508021027 50 0 0.0 0.0 0.00 0.00 0.00 63 1015.7
20260508020531 50 0 0.0 0.0 0.00 0.00 0.00 64 1015.5
20260508020049 51 0 0.0 0.0 0.00 0.00 0.00 63 1015.5
20260508015529 51 0 0.0 0.0 0.00 0.00 0.00 61 1015.5
20260508015029 51 0 0.0 0.0 0.00 0.00 0.00 61 1015.3
20260508014544 51 0 0.0 0.0 0.00 0.00 0.00 62 1015.4
20260508014030 52 0 0.0 0.0 0.00 0.00 0.00 60 1015.3
20260508013530 52 0 0.0 0.0 0.00 0.00 0.00 57 1015.3
20260508013053 52 0 0.0 0.0 0.00 0.00 0.00 58 1015.2
20260508012529 52 0 0.0 0.0 0.00 0.00 0.00 58 1015.2
20260508012029 53 0 0.0 0.0 0.00 0.00 0.00 57 1015.2
20260508011544 53 0 0.0 0.0 0.00 0.00 0.00 56 1015.1
20260508011029 54 0 0.0 0.0 0.00 0.00 0.00 55 1014.9
20260508010530 54 0 0.0 0.0 0.00 0.00 0.00 54 1014.7
20260508010047 55 0 0.0 0.0 0.00 0.00 0.00 54 1014.9
20260508005531 55 0 0.0 0.0 0.00 0.00 0.00 52 1014.7
20260508005031 56 0 0.0 0.0 0.00 0.00 0.00 53 1014.7
20260508004544 57 0 0.0 0.0 0.00 0.00 0.00 50 1014.7
20260508004033 58 0 0.0 0.0 0.00 0.00 0.00 45 1014.6
20260508003531 58 0 0.0 0.0 0.00 0.00 0.00 40 1014.5
20260508003044 59 0 0.0 0.0 0.00 0.00 0.00 40 1014.4
20260508002530 60 0 0.0 1.0 0.00 0.00 0.00 39 1014.4
20260508002030 61 0 0.0 1.0 0.00 0.00 0.00 39 1014.3
20260508001607 61 53 0.0 1.0 0.00 0.00 0.00 38 1014.3
20260508001031 62 0 0.0 4.0 0.00 0.00 0.00 38 1014.3
20260508000529 62 0 1.0 4.0 0.00 0.00 0.00 38 1014.3
20260508000045 63 326 0.0 2.0 0.00 0.00 0.00 34 1014.1
20260507235532 65 0 0.0 1.0 0.00 0.00 0.00 35 1014.1
20260507235029 64 0 0.0 1.0 0.00 0.00 0.00 34 1014.0
20260507234544 64 0 0.0 3.0 0.00 0.00 0.00 33 1014.1
20260507234053 63 0 0.0 4.0 0.00 0.00 0.00 34 1014.1
20260507233529 63 58 2.0 4.0 0.00 0.00 0.00 34 1014.1
20260507233046 64 0 0.0 4.0 0.00 0.00 0.00 33 1014.1
20260507232531 63 50 0.0 6.0 0.00 0.00 0.00 35 1014.2
20260507232030 62 18 1.0 6.0 0.00 0.00 0.00 36 1014.1